FW2710 Weather Reports


Display with metric or nautical units.
time (UTC)temp
F
wind
direction
speed
MPH
gust
MPH
rain 1hr
in
rain 24hr
in
rain mn
in
humidity
%
barometer
mb
20260905184023 92 0 0.0 2.0 0.00 0.00 0.00 65 1014.6
20260905183524 92 0 0.0 2.0 0.00 0.00 0.00 65 1014.6
20260905183050 93 0 0.0 3.0 0.00 0.00 0.00 63 1014.6
20260905182526 92 0 0.0 3.0 0.00 0.00 0.00 65 1014.7
20260905182025 91 0 0.0 2.0 0.00 0.00 0.00 66 1014.7
20260905181605 91 0 0.0 2.0 0.00 0.00 0.00 65 1014.7
20260905181023 92 0 0.0 0.0 0.00 0.00 0.00 65 1014.7
20260905180526 92 0 0.0 0.0 0.00 0.00 0.00 66 1014.7
20260905180051 92 0 0.0 0.0 0.00 0.00 0.00 65 1014.7
20260905175525 92 0 0.0 0.0 0.00 0.00 0.00 66 1014.8
20260905175025 91 0 0.0 0.0 0.00 0.00 0.00 65 1014.8
20260905174552 91 0 0.0 0.0 0.00 0.00 0.00 66 1014.8
20260905174028 91 0 0.0 0.0 0.00 0.00 0.00 66 1014.9
20260905173524 91 0 0.0 2.0 0.00 0.00 0.00 68 1014.9
20260905173041 91 0 0.0 2.0 0.00 0.00 0.00 67 1014.8
20260905172524 91 0 0.0 1.0 0.00 0.00 0.00 66 1014.8
20260905172024 91 0 0.0 0.0 0.00 0.00 0.00 66 1014.8
20260905171549 91 0 0.0 0.0 0.00 0.00 0.00 67 1015.0
20260905171026 90 0 0.0 0.0 0.00 0.00 0.00 67 1015.0
20260905170527 90 0 0.0 0.0 0.00 0.00 0.00 68 1015.0
20260905170046 90 0 0.0 0.0 0.00 0.00 0.00 69 1015.1
20260905165531 90 0 0.0 4.0 0.00 0.00 0.00 68 1015.1
20260905165027 89 0 0.0 4.0 0.00 0.00 0.00 70 1015.3
20260905164546 89 0 0.0 3.0 0.00 0.00 0.00 68 1015.4
20260905164028 90 0 0.0 0.0 0.00 0.00 0.00 69 1015.3
20260905163525 89 0 0.0 0.0 0.00 0.00 0.00 70 1015.4
20260905163050 89 0 0.0 0.0 0.00 0.00 0.00 70 1015.4
20260905162527 89 0 0.0 1.0 0.00 0.00 0.00 70 1015.4
20260905162028 89 0 0.0 1.0 0.00 0.00 0.00 69 1015.3
20260905161547 89 0 0.0 0.0 0.00 0.00 0.00 69 1015.3
20260905161027 89 0 0.0 0.0 0.00 0.00 0.00 69 1015.3
20260905160526 89 0 0.0 0.0 0.00 0.00 0.00 69 1015.3
20260905160114 89 0 0.0 0.0 0.00 0.00 0.00 69 1015.2
20260905155528 89 0 0.0 0.0 0.00 0.00 0.00 67 1015.3
20260905155027 89 0 0.0 0.0 0.00 0.00 0.00 68 1015.1
20260905154551 89 0 0.0 0.0 0.00 0.00 0.00 67 1015.0
20260905154028 89 0 0.0 0.0 0.00 0.00 0.00 68 1015.0
20260905153528 89 0 0.0 0.0 0.00 0.00 0.00 67 1015.1
20260905153047 88 0 0.0 0.0 0.00 0.00 0.00 68 1015.1
20260905152527 88 0 0.0 0.0 0.00 0.00 0.00 66 1015.0
20260905152026 88 0 0.0 0.0 0.00 0.00 0.00 70 1014.9
20260905151546 88 0 0.0 0.0 0.00 0.00 0.00 70 1015.0
20260905151026 88 0 0.0 0.0 0.00 0.00 0.00 69 1015.0
20260905150529 88 0 0.0 0.0 0.00 0.00 0.00 69 1015.0
20260905150055 88 0 0.0 0.0 0.00 0.00 0.00 71 1015.0
20260905145527 88 0 0.0 0.0 0.00 0.00 0.00 71 1014.9
20260905145029 87 0 0.0 0.0 0.00 0.00 0.00 71 1014.9
20260905144549 87 0 0.0 0.0 0.00 0.00 0.00 73 1014.9
20260905144031 86 0 0.0 0.0 0.00 0.00 0.00 75 1014.8
20260905143529 86 0 0.0 0.0 0.00 0.00 0.00 75 1014.7
20260905143048 85 0 0.0 0.0 0.00 0.00 0.00 76 1014.6
20260905142526 84 0 0.0 0.0 0.00 0.00 0.00 78 1014.6
20260905142024 84 0 0.0 0.0 0.00 0.00 0.00 78 1014.5
20260905141550 83 0 0.0 0.0 0.00 0.00 0.00 80 1014.5
20260905141027 83 0 0.0 0.0 0.00 0.00 0.00 81 1014.5
20260905140530 82 0 0.0 0.0 0.00 0.00 0.00 82 1014.5
20260905140049 82 0 0.0 0.0 0.00 0.00 0.00 83 1014.6
20260905135526 81 0 0.0 0.0 0.00 0.00 0.00 83 1014.5
20260905135025 81 0 0.0 0.0 0.00 0.00 0.00 84 1014.6
20260905134545 80 0 0.0 0.0 0.00 0.00 0.00 85 1014.8
20260905134026 80 0 0.0 0.0 0.00 0.00 0.00 86 1014.9
20260905133527 79 0 0.0 0.0 0.00 0.00 0.00 87 1014.9
20260905133052 79 0 0.0 0.0 0.00 0.00 0.00 87 1014.9
20260905132525 79 0 0.0 0.0 0.00 0.00 0.00 88 1014.9
20260905132025 78 0 0.0 0.0 0.00 0.00 0.00 90 1014.8
20260905131549 78 0 0.0 0.0 0.00 0.00 0.00 90 1014.8
20260905131024 77 0 0.0 0.0 0.00 0.00 0.00 91 1014.7
20260905130526 77 0 0.0 0.0 0.00 0.00 0.00 92 1014.5
20260905130046 77 0 0.0 0.0 0.00 0.00 0.00 92 1014.4
20260905125528 76 0 0.0 0.0 0.00 0.00 0.00 92 1014.4
20260905125025 76 0 0.0 0.0 0.00 0.00 0.00 93 1014.5
20260905124545 76 0 0.0 0.0 0.00 0.00 0.00 92 1014.5
20260905124025 76 0 0.0 0.0 0.00 0.00 0.00 92 1014.4
20260905123525 75 0 0.0 0.0 0.00 0.00 0.00 92 1014.3
20260905123043 75 0 0.0 0.0 0.00 0.00 0.00 92 1014.3
20260905122524 75 0 0.0 0.0 0.00 0.00 0.00 92 1014.3
20260905122024 75 0 0.0 0.0 0.00 0.00 0.00 92 1014.3
20260905121547 75 0 0.0 0.0 0.00 0.00 0.00 92 1014.3
20260905121024 75 0 0.0 0.0 0.00 0.00 0.00 92 1014.1
20260905120523 74 0 0.0 0.0 0.00 0.00 0.00 91 1014.2
20260905120055 74 0 0.0 0.0 0.00 0.00 0.00 91 1014.1
20260905115524 74 0 0.0 0.0 0.00 0.00 0.00 91 1014.1
20260905115029 74 0 0.0 0.0 0.00 0.00 0.00 91 1014.0
20260905114542 74 0 0.0 0.0 0.00 0.00 0.00 91 1014.0
20260905114023 74 0 0.0 0.0 0.00 0.00 0.00 91 1014.0
20260905113524 74 0 0.0 0.0 0.00 0.00 0.00 91 1013.9
20260905113048 74 0 0.0 0.0 0.00 0.00 0.00 91 1013.9
20260905112526 74 0 0.0 0.0 0.00 0.00 0.00 91 1014.0
20260905112023 74 0 0.0 0.0 0.00 0.00 0.00 91 1013.9
20260905111558 74 0 0.0 0.0 0.00 0.00 0.00 91 1013.7
20260905111025 74 0 0.0 0.0 0.00 0.00 0.00 91 1013.7
20260905110527 74 0 0.0 0.0 0.00 0.00 0.00 91 1013.7
20260905110044 74 0 0.0 0.0 0.00 0.00 0.00 91 1013.8
20260905105525 74 0 0.0 0.0 0.00 0.00 0.00 90 1013.6
20260905105025 74 0 0.0 0.0 0.00 0.00 0.00 90 1013.7
20260905104550 74 0 0.0 0.0 0.00 0.00 0.00 90 1013.9
20260905104028 74 0 0.0 0.0 0.00 0.00 0.00 90 1013.8
20260905103527 74 0 0.0 0.0 0.00 0.00 0.00 90 1013.8
20260905103052 75 0 0.0 0.0 0.00 0.00 0.00 90 1013.8
20260905102526 75 0 0.0 0.0 0.00 0.00 0.00 90 1013.7
20260905102027 75 0 0.0 0.0 0.00 0.00 0.00 91 1013.7
20260905101547 75 0 0.0 0.0 0.00 0.00 0.00 91 1013.7
20260905101026 75 0 0.0 0.0 0.00 0.00 0.00 91 1013.7
20260905100526 75 0 0.0 0.0 0.00 0.00 0.00 91 1013.9
20260905100047 75 0 0.0 0.0 0.00 0.00 0.00 91 1013.9
20260905095526 75 0 0.0 0.0 0.00 0.00 0.00 91 1013.9
20260905095026 75 0 0.0 0.0 0.00 0.00 0.00 90 1013.9
20260905094542 75 0 0.0 0.0 0.00 0.00 0.00 91 1014.0
20260905094024 75 0 0.0 0.0 0.00 0.00 0.00 91 1014.0
20260905093531 75 0 0.0 0.0 0.00 0.00 0.00 91 1013.9
20260905093047 75 0 0.0 0.0 0.00 0.00 0.00 91 1014.0
20260905092527 75 0 0.0 0.0 0.00 0.00 0.00 91 1014.0
20260905092026 75 0 0.0 0.0 0.00 0.00 0.00 91 1013.9
20260905091614 75 0 0.0 0.0 0.00 0.00 0.00 90 1013.8
20260905091033 75 0 0.0 0.0 0.00 0.00 0.00 90 1013.9
20260905090526 76 0 0.0 0.0 0.00 0.00 0.00 90 1014.0
20260905090106 76 0 0.0 0.0 0.00 0.00 0.00 90 1014.0
20260905085527 76 0 0.0 0.0 0.00 0.00 0.00 90 1014.0
20260905085027 76 0 0.0 0.0 0.00 0.00 0.00 90 1014.1
20260905084550 76 0 0.0 0.0 0.00 0.00 0.00 90 1014.1
20260905084023 76 0 0.0 0.0 0.00 0.00 0.00 90 1014.0
20260905083523 76 0 0.0 0.0 0.00 0.00 0.00 90 1014.0
20260905083046 76 0 0.0 0.0 0.00 0.00 0.00 90 1013.9
20260905082526 76 0 0.0 0.0 0.00 0.00 0.00 90 1014.0
20260905082026 76 0 0.0 0.0 0.00 0.00 0.00 90 1014.0
20260905081542 76 0 0.0 0.0 0.00 0.00 0.00 90 1013.9
20260905081026 76 0 0.0 0.0 0.00 0.00 0.00 91 1014.0
20260905080526 76 0 0.0 0.0 0.00 0.00 0.00 91 1014.0
20260905080055 76 0 0.0 0.0 0.00 0.00 0.00 91 1014.0
20260905075523 76 0 0.0 0.0 0.00 0.00 0.00 91 1014.1
20260905075028 76 0 0.0 0.0 0.00 0.00 0.00 90 1014.1
20260905074547 76 0 0.0 0.0 0.00 0.00 0.00 90 1014.1
20260905074030 76 0 0.0 0.0 0.00 0.00 0.00 90 1014.1
20260905073525 76 0 0.0 0.0 0.00 0.00 0.00 90 1014.1
20260905073102 76 0 0.0 0.0 0.00 0.00 0.00 90 1014.1
20260905072527 76 0 0.0 0.0 0.00 0.00 0.00 90 1014.1
20260905072026 76 0 0.0 0.0 0.00 0.00 0.00 90 1014.2
20260905071546 76 0 0.0 0.0 0.00 0.00 0.00 90 1014.2
20260905071029 76 0 0.0 0.0 0.00 0.00 0.00 90 1014.2
20260905070527 76 0 0.0 0.0 0.00 0.00 0.00 90 1014.3
20260905070046 76 0 0.0 0.0 0.00 0.00 0.00 90 1014.3
20260905065529 76 0 0.0 0.0 0.00 0.00 0.00 90 1014.3
20260905065024 77 0 0.0 0.0 0.00 0.00 0.00 90 1014.2
20260905064548 77 0 0.0 0.0 0.00 0.00 0.00 89 1014.3
20260905064027 77 0 0.0 0.0 0.00 0.00 0.00 89 1014.3
20260905063526 77 0 0.0 0.0 0.00 0.00 0.00 89 1014.4
20260905063047 77 0 0.0 0.0 0.00 0.00 0.00 88 1014.4
20260905062527 77 0 0.0 0.0 0.00 0.00 0.00 88 1014.4
20260905062028 77 0 0.0 0.0 0.00 0.00 0.00 87 1014.4
20260905061611 77 0 0.0 0.0 0.00 0.00 0.00 87 1014.4
20260905061026 77 0 0.0 0.0 0.00 0.00 0.00 87 1014.3
20260905060528 77 0 0.0 0.0 0.00 0.00 0.00 88 1014.4
20260905060051 77 0 0.0 0.0 0.00 0.00 0.00 88 1014.5
20260905055529 77 0 0.0 0.0 0.00 0.00 0.00 88 1014.5
20260905055030 77 0 0.0 0.0 0.00 0.00 0.00 88 1014.6
20260905054549 77 0 0.0 0.0 0.00 0.00 0.00 88 1014.6
20260905054028 77 0 0.0 0.0 0.00 0.00 0.00 88 1014.6
20260905053526 78 0 0.0 0.0 0.00 0.00 0.00 88 1014.7
20260905053052 78 0 0.0 0.0 0.00 0.00 0.00 88 1014.7
20260905052527 78 0 0.0 0.0 0.00 0.00 0.00 88 1014.7
20260905052026 78 0 0.0 0.0 0.00 0.00 0.00 87 1014.6
20260905051545 78 0 0.0 0.0 0.00 0.00 0.00 87 1014.6
20260905051026 78 0 0.0 0.0 0.00 0.00 0.00 86 1014.5
20260905050526 78 0 0.0 0.0 0.00 0.00 0.00 86 1014.5
20260905050047 78 0 0.0 0.0 0.00 0.00 0.00 85 1014.6
20260905045530 79 0 0.0 0.0 0.00 0.00 0.00 85 1014.7
20260905045026 79 0 0.0 0.0 0.00 0.00 0.00 85 1014.6
20260905044550 79 0 0.0 0.0 0.00 0.00 0.00 85 1014.5
20260905044023 79 0 0.0 0.0 0.00 0.00 0.00 85 1014.5
20260905043526 79 0 0.0 0.0 0.00 0.00 0.00 85 1014.7
20260905043048 79 0 0.0 0.0 0.00 0.00 0.00 84 1014.7
20260905042525 79 0 0.0 0.0 0.00 0.00 0.00 84 1014.6
20260905042027 80 0 0.0 0.0 0.00 0.00 0.00 84 1014.7
20260905041550 80 0 0.0 0.0 0.00 0.00 0.00 84 1014.7
20260905041031 80 0 0.0 0.0 0.00 0.00 0.00 84 1014.7
20260905040526 80 0 0.0 0.0 0.00 0.00 0.00 85 1014.6
20260905040049 80 0 0.0 0.0 0.00 0.00 0.00 84 1014.5
20260905035525 80 0 0.0 0.0 0.00 0.00 0.00 84 1014.5
20260905035028 80 0 0.0 0.0 0.00 0.00 0.00 85 1014.6
20260905034554 80 0 0.0 0.0 0.00 0.00 0.00 85 1014.7
20260905034025 79 0 0.0 0.0 0.00 0.00 0.00 85 1014.6
20260905033526 79 0 0.0 0.0 0.00 0.00 0.00 85 1014.5
20260905033045 79 0 0.0 0.0 0.00 0.00 0.00 85 1014.5
20260905032529 79 0 0.0 0.0 0.00 0.00 0.00 85 1014.7
20260905032026 79 0 0.0 0.0 0.00 0.00 0.00 86 1014.7
20260905031554 79 0 0.0 0.0 0.00 0.00 0.00 86 1014.7
20260905031026 79 0 0.0 0.0 0.00 0.00 0.00 85 1014.6
20260905030527 80 0 0.0 0.0 0.00 0.00 0.00 85 1014.6
20260905030047 80 0 0.0 0.0 0.00 0.00 0.00 85 1014.7
20260905025526 80 0 0.0 0.0 0.00 0.00 0.00 85 1014.6
20260905025027 80 0 0.0 0.0 0.00 0.00 0.00 84 1014.6
20260905024548 80 0 0.0 0.0 0.00 0.00 0.00 83 1014.5
20260905024027 81 0 0.0 0.0 0.00 0.00 0.00 82 1014.5
20260905023527 81 0 0.0 0.0 0.00 0.00 0.00 82 1014.6
20260905023046 81 0 0.0 0.0 0.00 0.00 0.00 82 1014.5
20260905022527 81 0 0.0 0.0 0.00 0.00 0.00 82 1014.5
20260905022026 82 0 0.0 0.0 0.00 0.00 0.00 82 1014.5
20260905021546 82 0 0.0 0.0 0.00 0.00 0.00 81 1014.4
20260905021030 82 0 0.0 0.0 0.00 0.00 0.00 81 1014.3
20260905020525 82 0 0.0 0.0 0.00 0.00 0.00 81 1014.4
20260905020048 82 0 0.0 0.0 0.00 0.00 0.00 81 1014.3
20260905015529 82 0 0.0 0.0 0.00 0.00 0.00 80 1014.3
20260905015027 82 0 0.0 0.0 0.00 0.00 0.00 79 1014.2
20260905014547 82 0 0.0 0.0 0.00 0.00 0.00 79 1014.2
20260905014026 82 0 0.0 0.0 0.00 0.00 0.00 78 1014.1
20260905013529 83 0 0.0 0.0 0.00 0.00 0.00 78 1014.0
20260905013050 83 0 0.0 0.0 0.00 0.00 0.00 78 1014.0
20260905012527 83 0 0.0 0.0 0.00 0.00 0.00 77 1013.9
20260905012146 83 0 0.0 0.0 0.00 0.00 0.00 77 1013.7
20260905011549 83 0 0.0 0.0 0.00 0.00 0.00 77 1013.8
20260905011027 84 0 0.0 0.0 0.00 0.00 0.00 77 1013.9
20260905010526 84 0 0.0 0.0 0.00 0.00 0.00 76 1013.9
20260905010046 84 0 0.0 0.0 0.00 0.00 0.00 76 1013.9
20260905005527 85 0 0.0 0.0 0.00 0.00 0.00 77 1013.7
20260905005027 85 0 0.0 0.0 0.00 0.00 0.00 76 1013.8
20260905004549 85 0 0.0 0.0 0.00 0.00 0.00 76 1013.6
20260905004025 86 0 0.0 0.0 0.00 0.00 0.00 75 1013.7
20260905003527 86 0 0.0 0.0 0.00 0.00 0.00 75 1013.6
20260905003052 86 0 0.0 0.0 0.00 0.00 0.00 74 1013.6
20260905002524 87 0 0.0 0.0 0.00 0.00 0.00 74 1013.7
20260905002027 88 0 0.0 0.0 0.00 0.00 0.00 73 1013.6
20260905001555 88 0 0.0 0.0 0.00 0.00 0.00 72 1013.7
20260905001030 89 0 0.0 0.0 0.00 0.00 0.00 71 1013.7
20260905000526 89 0 0.0 0.0 0.00 0.00 0.00 71 1013.7
20260904235525 90 0 0.0 0.0 0.00 0.00 0.00 69 1013.7
20260904235031 91 0 0.0 0.0 0.00 0.00 0.00 69 1013.5
20260904234547 91 0 0.0 0.0 0.00 0.00 0.00 67 1013.5
20260904234025 92 0 0.0 0.0 0.00 0.00 0.00 65 1013.5
20260904233525 92 0 0.0 0.0 0.00 0.00 0.00 63 1013.6
20260904233054 93 0 0.0 0.0 0.00 0.00 0.00 63 1013.6
20260904232527 93 0 0.0 0.0 0.00 0.00 0.00 63 1013.6
20260904232028 94 0 0.0 0.0 0.00 0.00 0.00 61 1013.7
20260904231557 94 0 0.0 0.0 0.00 0.00 0.00 61 1013.7
20260904231026 94 0 0.0 0.0 0.00 0.00 0.00 60 1013.7
20260904230526 95 0 0.0 0.0 0.00 0.00 0.00 60 1013.9
20260904230049 95 0 0.0 0.0 0.00 0.00 0.00 60 1013.9
20260904225527 95 0 0.0 0.0 0.00 0.00 0.00 61 1013.8
20260904225027 95 0 0.0 0.0 0.00 0.00 0.00 59 1013.8
20260904224554 95 0 0.0 0.0 0.00 0.00 0.00 58 1013.9
20260904224026 96 0 0.0 0.0 0.00 0.00 0.00 57 1013.7
20260904223527 96 0 0.0 0.0 0.00 0.00 0.00 58 1013.7
20260904223100 96 0 0.0 0.0 0.00 0.00 0.00 56 1013.6
20260904222525 96 0 0.0 0.0 0.00 0.00 0.00 56 1013.6
20260904222026 96 0 0.0 0.0 0.00 0.00 0.00 55 1013.6
20260904221545 96 0 0.0 0.0 0.00 0.00 0.00 55 1013.6
20260904221024 96 0 0.0 0.0 0.00 0.00 0.00 55 1013.6
20260904220524 96 0 0.0 0.0 0.00 0.00 0.00 56 1013.4
20260904220053 96 0 0.0 0.0 0.00 0.00 0.00 55 1013.5
20260904215528 96 0 0.0 0.0 0.00 0.00 0.00 56 1013.6
20260904215028 96 0 0.0 0.0 0.00 0.00 0.00 55 1013.6
20260904214548 96 0 0.0 0.0 0.00 0.00 0.00 56 1013.6
20260904214025 96 0 0.0 0.0 0.00 0.00 0.00 55 1013.5
20260904213529 96 0 0.0 3.0 0.00 0.00 0.00 56 1013.5
20260904213054 96 0 0.0 3.0 0.00 0.00 0.00 55 1013.5
20260904212527 96 0 0.0 3.0 0.00 0.00 0.00 59 1013.7
20260904212027 96 0 0.0 0.0 0.00 0.00 0.00 53 1013.7
20260904211549 96 0 0.0 0.0 0.00 0.00 0.00 55 1013.7
20260904211026 97 0 0.0 0.0 0.00 0.00 0.00 54 1013.7
20260904210526 97 0 0.0 0.0 0.00 0.00 0.00 53 1013.8
20260904210059 97 0 0.0 0.0 0.00 0.00 0.00 53 1013.9
20260904205528 97 0 0.0 0.0 0.00 0.00 0.00 56 1013.9
20260904205025 97 0 0.0 0.0 0.00 0.00 0.00 54 1014.1
20260904204544 97 0 0.0 0.0 0.00 0.00 0.00 53 1014.1
20260904204024 97 0 0.0 0.0 0.00 0.00 0.00 56 1014.2
20260904203523 96 0 0.0 0.0 0.00 0.00 0.00 57 1014.2
20260904203100 96 0 0.0 0.0 0.00 0.00 0.00 56 1014.3
20260904202527 96 0 0.0 0.0 0.00 0.00 0.00 56 1014.3
20260904202026 97 0 0.0 0.0 0.00 0.00 0.00 57 1014.4
20260904201547 97 0 0.0 0.0 0.00 0.00 0.00 53 1014.5
20260904201026 97 0 0.0 0.0 0.00 0.00 0.00 55 1014.5
20260904200527 96 0 0.0 0.0 0.00 0.00 0.00 55 1014.6
20260904200046 97 0 0.0 0.0 0.00 0.00 0.00 54 1014.7
20260904195526 97 0 0.0 0.0 0.00 0.00 0.00 56 1014.9
20260904195025 97 0 0.0 0.0 0.00 0.00 0.00 56 1014.9
20260904194546 97 0 0.0 4.0 0.00 0.00 0.00 56 1014.9
20260904194024 97 0 0.0 4.0 0.00 0.00 0.00 55 1014.8
20260904193523 97 0 0.0 4.0 0.00 0.00 0.00 55 1014.9
20260904193103 97 0 0.0 4.0 0.00 0.00 0.00 55 1014.9
20260904192528 97 289 0.0 2.0 0.00 0.00 0.00 57 1015.0
20260904192027 97 0 0.0 2.0 0.00 0.00 0.00 55 1015.0
20260904191553 97 0 0.0 3.0 0.00 0.00 0.00 57 1015.0
20260904191024 96 0 0.0 3.0 0.00 0.00 0.00 57 1015.1
20260904190524 96 0 0.0 3.0 0.00 0.00 0.00 60 1015.2
20260904190044 96 0 0.0 2.0 0.00 0.00 0.00 57 1015.3
20260904185526 96 0 0.0 0.0 0.00 0.00 0.00 59 1015.3
20260904185025 95 0 0.0 0.0 0.00 0.00 0.00 60 1015.4
20260904184545 95 0 0.0 0.0 0.00 0.00 0.00 56 1015.4